Time,TemperatureF,DewpointF,PressureIn,WindDirection,WindDirectionDegrees,WindSpeedMPH,WindSpeedGustMPH,Humidity,HourlyPrecipIn,Conditions,Clouds,dailyrainin,SoftwareType,DateUTC
2015-05-25 00:03:00,67.5,58.2,29.92,ESE,120,5.0,7.0,72,0.00,,,0.00,VWS V15.00,2015-05-25 04:03:00,
2015-05-25 00:08:00,67.6,58.3,29.92,SE,128,4.0,8.0,72,0.00,,,0.00,VWS V15.00,2015-05-25 04:08:00,
2015-05-25 00:13:00,67.7,58.4,29.92,ESE,105,4.0,6.0,72,0.00,,,0.00,VWS V15.00,2015-05-25 04:13:00,
2015-05-25 00:19:00,67.8,58.5,29.92,East,101,2.0,6.0,72,0.00,,,0.00,VWS V15.00,2015-05-25 04:19:00,
2015-05-25 00:24:00,67.9,58.2,29.92,East,85,2.0,6.0,71,0.00,,,0.00,VWS V15.00,2015-05-25 04:24:00,
2015-05-25 00:29:00,67.9,58.5,29.92,ENE,72,5.0,7.0,72,0.00,,,0.00,VWS V15.00,2015-05-25 04:29:00,
2015-05-25 00:34:00,68.0,58.3,29.92,ESE,112,2.0,5.0,71,0.00,,,0.00,VWS V15.00,2015-05-25 04:34:00,
2015-05-25 00:39:00,68.1,58.3,29.92,East,101,3.0,4.0,71,0.00,,,0.00,VWS V15.00,2015-05-25 04:39:00,
2015-05-25 00:44:00,68.0,58.3,29.92,East,96,2.0,3.0,71,0.00,,,0.00,VWS V15.00,2015-05-25 04:44:00,
2015-05-25 00:49:00,68.0,58.3,29.92,ESE,113,4.0,4.0,71,0.00,,,0.00,VWS V15.00,2015-05-25 04:49:00,
2015-05-25 00:54:00,68.0,58.3,29.92,ESE,112,3.0,3.0,71,0.00,,,0.00,VWS V15.00,2015-05-25 04:54:00,
2015-05-25 00:59:00,68.0,58.3,29.92,East,93,4.0,4.0,71,0.00,,,0.00,VWS V15.00,2015-05-25 04:59:00,
2015-05-25 01:04:00,67.9,58.5,29.92,East,98,1.0,3.0,72,0.00,,,0.00,VWS V15.00,2015-05-25 05:04:00,
2015-05-25 01:09:00,67.9,58.2,29.92,SE,128,1.0,2.0,71,0.00,,,0.00,VWS V15.00,2015-05-25 05:09:00,
2015-05-25 01:14:00,67.8,58.5,29.92,ESE,123,2.0,4.0,72,0.00,,,0.00,VWS V15.00,2015-05-25 05:14:00,
2015-05-25 01:19:00,67.8,58.5,29.91,ESE,108,2.0,3.0,72,0.00,,,0.00,VWS V15.00,2015-05-25 05:19:00,
2015-05-25 01:24:00,67.8,58.5,29.91,ESE,117,2.0,5.0,72,0.00,,,0.00,VWS V15.00,2015-05-25 05:24:00,
2015-05-25 01:29:00,67.8,58.5,29.91,SE,128,3.0,3.0,72,0.00,,,0.00,VWS V15.00,2015-05-25 05:29:00,
2015-05-25 01:34:00,67.7,58.4,29.91,SE,134,3.0,4.0,72,0.00,,,0.00,VWS V15.00,2015-05-25 05:34:00,
2015-05-25 01:39:00,67.7,58.4,29.91,ESE,123,1.0,4.0,72,0.00,,,0.00,VWS V15.00,2015-05-25 05:39:00,
2015-05-25 01:44:00,67.6,58.3,29.91,ESE,117,2.0,4.0,72,0.00,,,0.00,VWS V15.00,2015-05-25 05:44:00,
2015-05-25 01:49:00,67.6,58.3,29.90,SE,132,5.0,5.0,72,0.00,,,0.00,VWS V15.00,2015-05-25 05:49:00,
2015-05-25 01:54:00,67.6,58.3,29.90,SE,130,4.0,4.0,72,0.00,,,0.00,VWS V15.00,2015-05-25 05:54:00,
2015-05-25 02:00:00,67.5,58.2,29.90,ESE,111,3.0,6.0,72,0.00,,,0.00,VWS V15.00,2015-05-25 06:00:00,
2015-05-25 02:05:00,67.5,58.2,29.90,SSE,154,4.0,7.0,72,0.00,,,0.00,VWS V15.00,2015-05-25 06:05:00,
2015-05-25 02:10:00,67.5,58.2,29.90,SE,133,5.0,7.0,72,0.00,,,0.00,VWS V15.00,2015-05-25 06:10:00,
2015-05-25 02:15:00,67.6,57.9,29.90,SE,134,5.0,5.0,71,0.00,,,0.00,VWS V15.00,2015-05-25 06:15:00,
2015-05-25 02:20:00,67.6,57.9,29.89,SE,135,5.0,7.0,71,0.00,,,0.00,VWS V15.00,2015-05-25 06:20:00,
2015-05-25 02:25:00,67.8,58.1,29.89,SE,139,5.0,7.0,71,0.00,,,0.00,VWS V15.00,2015-05-25 06:25:00,
2015-05-25 02:30:00,67.8,58.1,29.89,SE,136,3.0,4.0,71,0.00,,,0.00,VWS V15.00,2015-05-25 06:30:00,